TimeMST,TemperatureF,Dew PointF,Humidity,Sea Level PressureIn,VisibilityMPH,Wind Direction,Wind SpeedMPH,Gust SpeedMPH,PrecipitationIn,Events,Conditions,WindDirDegrees,DateUTC
12:15 AM,57.2,48.2,72,30.22,10.0,South,10.4,-,N/A,,Clear,190,2013-09-17 07:15:00
12:35 AM,57.2,48.2,72,30.22,10.0,South,11.5,-,N/A,,Clear,180,2013-09-17 07:35:00
12:55 AM,57.2,48.2,72,30.21,10.0,South,10.4,-,N/A,,Clear,190,2013-09-17 07:55:00
1:15 AM,57.2,48.2,72,30.21,10.0,South,12.7,-,N/A,,Clear,180,2013-09-17 08:15:00
1:35 AM,57.2,48.2,72,30.21,10.0,South,15.0,-,N/A,,Clear,190,2013-09-17 08:35:00
2:15 AM,57.2,48.2,72,30.20,10.0,South,11.5,-,N/A,,Clear,180,2013-09-17 09:15:00
2:35 AM,55.4,48.2,77,30.19,10.0,South,12.7,-,N/A,,Clear,180,2013-09-17 09:35:00
2:55 AM,57.2,50.0,77,30.19,10.0,South,11.5,-,N/A,,Clear,180,2013-09-17 09:55:00
3:15 AM,55.4,50.0,82,30.19,10.0,South,10.4,-,N/A,,Clear,180,2013-09-17 10:15:00
3:35 AM,55.4,50.0,82,30.19,10.0,South,8.1,-,N/A,,Clear,170,2013-09-17 10:35:00
3:55 AM,55.4,50.0,82,30.19,10.0,SSE,3.5,-,N/A,,Clear,150,2013-09-17 10:55:00
4:15 AM,55.4,50.0,82,30.19,10.0,SSE,6.9,-,N/A,,Clear,160,2013-09-17 11:15:00
4:35 AM,55.4,50.0,82,30.19,10.0,South,10.4,-,N/A,,Clear,170,2013-09-17 11:35:00
4:55 AM,55.4,50.0,82,30.19,10.0,South,8.1,-,N/A,,Clear,170,2013-09-17 11:55:00
5:15 AM,53.6,48.2,82,30.19,10.0,East,3.5,-,N/A,,Clear,100,2013-09-17 12:15:00
5:35 AM,55.4,48.2,77,30.19,10.0,Calm,Calm,-,N/A,,Clear,0,2013-09-17 12:35:00
5:55 AM,55.4,48.2,77,30.20,10.0,SSE,3.5,-,N/A,,Clear,150,2013-09-17 12:55:00
6:15 AM,53.6,48.2,82,30.20,10.0,Calm,Calm,-,N/A,,Clear,0,2013-09-17 13:15:00
6:35 AM,53.6,48.2,82,30.20,10.0,Calm,Calm,-,N/A,,Clear,0,2013-09-17 13:35:00
6:55 AM,55.4,50.0,82,30.21,10.0,South,6.9,-,N/A,,Clear,170,2013-09-17 13:55:00
7:15 AM,57.2,50.0,77,30.21,10.0,South,8.1,-,N/A,,Clear,170,2013-09-17 14:15:00
7:35 AM,60.8,50.0,68,30.21,10.0,South,8.1,-,N/A,,Clear,180,2013-09-17 14:35:00
7:55 AM,62.6,50.0,63,30.21,10.0,South,8.1,-,N/A,,Clear,180,2013-09-17 14:55:00
8:15 AM,64.4,50.0,59,30.22,10.0,South,10.4,-,N/A,,Clear,170,2013-09-17 15:15:00
8:35 AM,66.2,51.8,60,30.21,10.0,South,10.4,-,N/A,,Unknown,170,2013-09-17 15:35:00
8:55 AM,68.0,53.6,60,30.21,10.0,South,10.4,-,N/A,,Unknown,170,2013-09-17 15:55:00
9:15 AM,68.0,51.8,56,30.21,10.0,South,12.7,-,N/A,,Unknown,180,2013-09-17 16:15:00
9:35 AM,69.8,50.0,49,30.21,10.0,South,17.3,21.9,N/A,,Clear,170,2013-09-17 16:35:00
9:55 AM,69.8,51.8,53,30.21,10.0,South,17.3,24.2,N/A,,Clear,190,2013-09-17 16:55:00
10:15 AM,71.6,51.8,50,30.21,10.0,South,17.3,21.9,N/A,,Clear,190,2013-09-17 17:15:00
10:35 AM,71.6,51.8,50,30.21,10.0,South,12.7,18.4,N/A,,Clear,180,2013-09-17 17:35:00
10:55 AM,71.6,51.8,50,30.20,10.0,South,13.8,-,N/A,,Clear,170,2013-09-17 17:55:00
11:15 AM,73.4,51.8,47,30.19,10.0,South,12.7,-,N/A,,Clear,170,2013-09-17 18:15:00
11:35 AM,73.4,50.0,44,30.18,10.0,South,13.8,18.4,N/A,,Clear,170,2013-09-17 18:35:00
11:55 AM,73.4,50.0,44,30.18,10.0,South,16.1,20.7,N/A,,Unknown,190,2013-09-17 18:55:00
12:15 PM,75.2,50.0,41,30.16,10.0,South,13.8,-,N/A,,Unknown,180,2013-09-17 19:15:00
12:35 PM,75.2,51.8,44,30.16,10.0,South,15.0,18.4,N/A,,Unknown,190,2013-09-17 19:35:00
12:55 PM,75.2,50.0,41,30.15,10.0,SSW,15.0,21.9,N/A,,Clear,200,2013-09-17 19:55:00
1:15 PM,75.2,48.2,38,30.14,10.0,South,15.0,19.6,N/A,,Clear,190,2013-09-17 20:15:00
1:35 PM,75.2,50.0,41,30.13,10.0,South,12.7,21.9,N/A,,Clear,170,2013-09-17 20:35:00
1:55 PM,75.2,50.0,41,30.12,10.0,South,15.0,20.7,N/A,,Clear,190,2013-09-17 20:55:00
2:15 PM,75.2,48.2,38,30.12,10.0,South,12.7,-,N/A,,Clear,170,2013-09-17 21:15:00
2:35 PM,75.2,50.0,41,30.11,10.0,South,17.3,-,N/A,,Clear,180,2013-09-17 21:35:00
2:55 PM,75.2,50.0,41,30.11,10.0,South,16.1,20.7,N/A,,Clear,170,2013-09-17 21:55:00
3:15 PM,75.2,48.2,38,30.10,10.0,South,18.4,23.0,N/A,,Clear,180,2013-09-17 22:15:00
3:35 PM,75.2,48.2,38,30.09,10.0,South,18.4,23.0,N/A,,Clear,180,2013-09-17 22:35:00
3:55 PM,75.2,48.2,38,30.09,10.0,South,13.8,20.7,N/A,,Clear,190,2013-09-17 22:55:00
4:15 PM,75.2,48.2,38,30.09,10.0,SSW,18.4,-,N/A,,Clear,210,2013-09-17 23:15:00
4:35 PM,75.2,48.2,38,30.09,10.0,SSW,13.8,20.7,N/A,,Clear,210,2013-09-17 23:35:00
4:55 PM,75.2,46.4,36,30.09,10.0,SSW,16.1,-,N/A,,Clear,210,2013-09-17 23:55:00
5:15 PM,73.4,48.2,41,30.08,10.0,South,16.1,-,N/A,,Clear,190,2013-09-18 00:15:00
5:35 PM,73.4,46.4,38,30.08,10.0,SSW,15.0,-,N/A,,Clear,200,2013-09-18 00:35:00
5:55 PM,71.6,48.2,43,30.08,10.0,South,10.4,-,N/A,,Clear,190,2013-09-18 00:55:00
6:15 PM,69.8,48.2,46,30.08,10.0,South,9.2,-,N/A,,Clear,190,2013-09-18 01:15:00
6:35 PM,68.0,48.2,49,30.08,10.0,SSW,8.1,-,N/A,,Clear,200,2013-09-18 01:35:00
6:55 PM,66.2,48.2,52,30.08,10.0,South,9.2,-,N/A,,Clear,190,2013-09-18 01:55:00
7:15 PM,66.2,50.0,56,30.09,10.0,South,5.8,-,N/A,,Clear,180,2013-09-18 02:15:00
7:35 PM,64.4,50.0,59,30.09,10.0,South,9.2,-,N/A,,Clear,190,2013-09-18 02:35:00
7:55 PM,64.4,50.0,59,30.09,10.0,South,12.7,-,N/A,,Clear,180,2013-09-18 02:55:00
8:15 PM,64.4,50.0,59,30.10,10.0,South,11.5,-,N/A,,Clear,190,2013-09-18 03:15:00
8:35 PM,62.6,50.0,63,30.10,10.0,South,11.5,-,N/A,,Clear,180,2013-09-18 03:35:00
8:55 PM,64.4,48.2,56,30.11,10.0,South,11.5,-,N/A,,Unknown,190,2013-09-18 03:55:00
9:35 PM,64.4,50.0,59,30.11,10.0,South,12.7,-,N/A,,Unknown,180,2013-09-18 04:35:00
9:55 PM,64.4,50.0,59,30.11,10.0,South,12.7,-,N/A,,Clear,180,2013-09-18 04:55:00
10:15 PM,62.6,50.0,63,30.11,10.0,South,12.7,-,N/A,,Clear,170,2013-09-18 05:15:00
10:35 PM,64.4,50.0,59,30.10,10.0,SSE,12.7,-,N/A,,Clear,160,2013-09-18 05:35:00
10:55 PM,64.4,50.0,59,30.10,10.0,South,10.4,-,N/A,,Clear,170,2013-09-18 05:55:00
11:15 PM,64.4,50.0,59,30.10,10.0,South,13.8,-,N/A,,Clear,180,2013-09-18 06:15:00
11:35 PM,64.4,50.0,59,30.10,10.0,South,13.8,17.3,N/A,,Clear,180,2013-09-18 06:35:00
11:55 PM,64.4,50.0,59,30.10,10.0,South,13.8,-,N/A,,Clear,170,2013-09-18 06:55:00